Dauntless Aviation
Greetings, Guest! To participate, [sign up for a free account] or [log in]
Airports North America Canada
CYLW
YLW

Kelowna International Airport

Kelowna, BC, CANADA

Airport Info
Edit

Location

Latitude / Longitude: 49°53'0"N / 119°29'35"W
  49°53.016'N / 119°29.598'W
  49.8836 / -119.4933

Nearby radio navigation aids

EX RUTLAND NDB. 335.5° 1.0nm from EX to field.
LW KELOWNA NDB. 147.1° 6.5nm from LW to field.

Runway Information

Runway 16 /34

Dimensions: 7300 x 200 ft.
Surface: ASP
 
Runway 16
Runway 34
Latitude: 49.966 49.946278
Longitude: -119.378961 -119.376461
Elevation: 1409 ft. 1409 ft.
Runway true heading: 166.6 346.6
 

Instrument Procedures

  Aerodrome Chart
  Parking Areas
  CAC: Aerodrome Chart
  CAC: Parking Areas - Apron I
  CAC: Parking Areas - Apron III

IAPs (Instrument Approach Procedures)

  CFS: KELOWNA VFR Terminal Procedures Chart
  CFS: KELOWNA VFR Terminal Procedures Chart - Night Circuit Procedure
  CFS: Aerodrome Information
  CFS: Aerodrome Information (Part 2)
  DATBO ONE ARR (DATBO.DATBO 1)
  LENUR ONE ARR (LENUR.LENUR 1)
  RNAV (GNSS) A
  NDB B (GNSS)
  ILS/DME 1 Rwy 16
  Night Circuit Procedures
  KELOWNA FIVE DEP (YLW 5.)

Departure Procedures

  Departure Procedure
Satellite photo at:
Airport distance calculator
From:
Weather Reports

METAR

CYLW

CYLW 270500Z AUTO VRB02KT 9SM OVC011 03/02 A2993 RMK PCPN 0.8MM PAST HR SLP150
CWUS
20.0nm S
CWUS 270500Z AUTO 29003KT 02/01 RMK AO1 SLP146 T00240010 56026
CWJV
21.6nm N
CWJV 270500Z AUTO 11005KT 01/01 RMK AO1 SLP144 T00090006 56019
CYYF
25.3nm S
CYYF 270500Z 18017G24KT 15SM FEW010 BKN022 BKN034 OVC075 04/02 A2993 RMK SF1SC5SC1AC1 SLP147

TAF

CYLW
TAF AMD CYLW 270259Z 2702/2713 VRB03KT P6SM SCT020 OVC040 TEMPO 2702/2713 2SM -RASN BR SCT008 BKN015 OVC040 PROB30 2702/2713 1SM BR BKN008 RMK FCST BASED ON AUTO OBS. NXT FCST BY 270700Z
CYYF
25.3nm S
TAF CYYF 270038Z 2701/2713 18015G25KT P6SM FEW007 SCT015 OVC040 TEMPO 2701/2713 5SM -RA BR SCT007 OVC015 RMK NXT FCST BY 270700Z
Safelog

 

Dauntless Aviation

© 2007-2014 Dauntless Aviation, all rights reserved
Information provided via PilotNav comes from a variety of official and unofficial data sources. As errors are possible, do not use PilotNav for primary flight planning purposes. Verify any information that you receive via PilotNav with current and canonical charts and other official documents. The material in this database is subject to database copyrights held by Dauntless Aviation and may not be copied without the express permission of Dauntless Aviation - licenses for use of part of all of this data are available for purchase; enquire via the Dauntless Aviation helpdesk. A number of mechanisms and markers exist in the database to protect against and identify infringement / copyright. Automated queries against this website are stictly prohibited, and all activity is logged and analyzed.